Terminal Aerodrome Forecast
Issued by NWS

Home | Current Version | Previous Version | Graphics & Text | Print | Product List | Glossary On
Versions: 1 2 3 4 5 6 7 8 9 10 11 12 13 14 15 16 17
000
FTUS43 KTOP 031133
TAFFOE
TAF
KFOE 031133Z 0312/0412 19011KT P6SM SCT090
     FM031500 19013G21KT P6SM FEW100
     FM040000 16008KT P6SM FEW100=

USA.gov is the U.S. government's official web portal to all federal, state and local government web resources and services.